Weather reports worldwide

Advertisment
Gardelegen, Germany (10359): temperature & dewpoint: 10.08.2018 13:00:00 - 16.08.2018 13:00:00 (CEST)Gardelegen, Germany (10359): temperature 5cm & temperature -5cm: 10.08.2018 13:00:00 - 16.08.2018 13:00:00 (CEST)Gardelegen, Germany (10359): temperature -20cm & temperature -100cm: 10.08.2018 13:00:00 - 16.08.2018 13:00:00 (CEST)Gardelegen, Germany (10359): wind speed & gusts: 10.08.2018 13:00:00 - 16.08.2018 13:00:00 (CEST)Gardelegen, Germany (10359): wind direction: 10.08.2018 13:00:00 - 16.08.2018 13:00:00 (CEST)Gardelegen, Germany (10359): reduced air pressure: 10.08.2018 13:00:00 - 16.08.2018 13:00:00 (CEST)Gardelegen, Germany (10359): visibility: 10.08.2018 13:00:00 - 16.08.2018 13:00:00 (CEST)Gardelegen, Germany (10359): sunshine duration: 10.08.2018 13:00:00 - 16.08.2018 13:00:00 (CEST)Gardelegen, Germany (10359): precipitation: 10.08.2018 13:00:00 - 16.08.2018 13:00:00 (CEST)
Date & Time tt [°C] td [°C] tt 5cm [°C] tt -5cm [°C] tt -20cm [°C] tt -100cm [°C] ff [km/h] ff [kn] fx [km/h] fx [kn] dd ppp [hPa] vv [km] sd [min] rr [mm]
16.08.2018 13:00:00 26,3 11,4 30,9 32,1 21,5 20,7 17 9 34 18 S 1016,7 33 60 0,0
16.08.2018 12:00:00 25,9 11,3 29,2 29,6 20,2 20,7 15 8 30 16 S 1017,2 41 60 0,0
16.08.2018 11:00:00 24,4 11,9 27,4 26,2 19,2 20,7 15 8 26 14 S 1017,9 45 60 0,0
16.08.2018 10:00:00 22,7 12,2 24,6 22,4 18,5 20,7 16 9 27 15 SSE 1018,2 40 60 0,0
16.08.2018 09:00:00 20,2 13,2 21,7 18,9 18,2 20,7 6 4 12 7 S 1018,5 33 60 0,0
16.08.2018 08:00:00 15,0 13,0 15,0 14,9 18,4 20,7 2 1 3 2 WSW 1018,9 20 58 0,0
16.08.2018 07:00:00 11,2 10,8 10,7 13,8 18,7 20,7 1 1 3 2 W 1019,2 11 12 0,0
16.08.2018 06:00:00 10,8 10,4 9,7 14,0 19,1 20,8 1 1 2 1 W 1019,2 10 0 0,0
16.08.2018 05:00:00 11,4 10,9 9,7 14,4 19,5 20,8 0 0 3 2 NNE 1019,3 10 0 0,0
16.08.2018 04:00:00 11,8 11,3 10,4 14,9 20,0 20,8 0 0 3 2 N 1019,4 8 0 0,0
16.08.2018 03:00:00 12,0 11,5 10,7 15,5 20,4 20,8 2 1 3 2 SSE 1019,5 8 0 0,0
16.08.2018 02:00:00 12,3 11,8 11,5 16,2 20,9 20,8 2 1 5 3 W 1019,6 7 0 0,0
16.08.2018 01:00:00 13,3 12,6 12,1 17,0 21,4 20,8 0 0 4 2 N 1019,6 12 0 0,0
16.08.2018 00:00:00 13,8 13,1 12,7 17,8 21,9 20,9 1 1 3 2 WSW 1019,6 17 0 0,0
15.08.2018 23:00:00 14,7 13,8 13,4 18,8 22,4 20,9 2 1 3 2 SW 1019,7 9 0 0,0
15.08.2018 22:00:00 16,1 14,9 14,5 20,0 22,8 20,9 2 1 4 2 SSW 1019,5 17 0 0,0
15.08.2018 21:00:00 18,6 15,1 15,7 21,6 23,2 20,9 2 1 4 2 SSE 1019,2 46 0 0,0
15.08.2018 20:00:00 22,6 13,6 20,8 23,5 23,3 21,0 3 2 16 8 W 1018,9 54 56 0,0
15.08.2018 19:00:00 23,5 13,5 23,7 25,4 23,2 21,0 9 5 18 10 W 1018,8 35 53 0,0
15.08.2018 18:00:00 23,7 13,5 25,2 26,4 22,9 21,0 12 6 19 11 WSW 1019,0 29 36 0,0
15.08.2018 17:00:00 22,8 13,6 25,0 26,0 22,6 21,0 10 6 21 12 W 1019,1 44 0 0,0
15.08.2018 16:00:00 22,6 13,8 24,6 25,6 22,3 21,1 12 6 23 13 W 1019,1 70 0 0,0
15.08.2018 15:00:00 21,7 13,0 22,6 26,0 21,8 21,1 13 7 24 13 WNW 1019,0 70 25 0,0
15.08.2018 14:00:00 22,6 13,5 26,0 24,7 21,3 21,1 12 6 22 12 W 1018,9 34 4 0,0
15.08.2018 13:00:00 21,9 13,5 25,1 25,8 20,6 21,1 15 8 29 15 WSW 1018,9 34 23 0,0
15.08.2018 12:00:00 20,7 13,9 22,7 23,5 20,1 21,1 12 7 21 11 W 1018,9 38 22 0,0
15.08.2018 11:00:00 20,1 14,3 21,5 21,9 19,6 21,2 13 7 22 12 W 1019,0 47 27 0,0
15.08.2018 10:00:00 18,9 14,3 19,2 20,7 19,2 21,2 11 6 20 11 W 1018,8 62 27 0,0
15.08.2018 09:00:00 17,3 13,8 17,0 18,5 19,0 21,2 8 4 16 9 WSW 1018,2 51 35 0,0
15.08.2018 08:00:00 15,3 13,5 14,7 16,2 19,1 21,2 4 2 9 5 SSW 1017,9 35 4 0,0
15.08.2018 07:00:00 14,6 13,2 14,0 15,6 19,4 21,2 2 1 9 5 SSW 1017,4 38 0 0,0
15.08.2018 06:00:00 14,3 12,9 13,5 15,3 19,6 21,2 5 3 11 6 WSW 1017,1 42 0 0,0
15.08.2018 05:00:00 14,2 12,9 13,2 15,6 20,0 21,2 5 3 8 5 SSW 1016,8 46 0 0,0
15.08.2018 04:00:00 14,7 13,3 13,7 15,9 20,3 21,3 5 3 10 5 SW 1016,8 47 0 0,0
15.08.2018 03:00:00 15,2 13,3 13,7 16,2 20,7 21,3 7 4 16 9 W 1016,5 57 0 0,0
15.08.2018 02:00:00 15,7 14,1 14,3 16,8 21,1 21,3 9 5 16 8 W 1016,3 54 0 0,0
15.08.2018 01:00:00 16,7 15,0 15,4 18,0 21,4 21,3 5 3 12 7 WNW 1016,2 52 0 0,0
15.08.2018 00:00:00 16,9 15,2 16,2 18,2 21,7 21,3 8 5 22 12 W 1015,7 63 0 0,1
14.08.2018 23:00:00 16,8 15,1 16,1 18,4 22,0 21,3 13 7 39 21 WNW 1015,2 49 0 0,2
14.08.2018 22:00:00 18,0 16,2 17,0 19,2 22,4 21,4 8 4 15 8 WSW 1014,4 38 0 0,0
14.08.2018 21:00:00 17,9 16,7 17,3 19,7 22,7 21,4 8 4 19 10 WSW 1013,7 26 0 0,0
14.08.2018 20:00:00 18,0 16,8 17,8 20,3 23,0 21,4 10 6 34 18 WSW 1013,1 25 0 0,1
14.08.2018 19:00:00 18,1 16,6 17,9 20,8 23,3 21,4 18 10 41 22 W 1012,6 26 0 1,6
14.08.2018 18:00:00 19,6 17,8 20,4 23,1 23,3 21,4 16 9 35 19 WSW 1011,9 46 20 1,3
14.08.2018 17:00:00 19,9 17,1 20,6 23,6 23,2 21,4 13 7 30 16 SW 1011,3 70 4 0,0
14.08.2018 16:00:00 20,9 17,4 21,9 25,6 23,1 21,4 15 8 34 19 SW 1011,0 21 16 1,6
14.08.2018 15:00:00 22,2 15,9 23,2 27,6 22,8 21,5 15 8 29 16 WSW 1010,6 30 51 0,0
14.08.2018 14:00:00 19,8 16,7 21,3 23,9 22,6 21,5 12 6 37 20 WSW 1010,6 27 4 2,4
14.08.2018 13:00:00 21,2 13,9 23,1 25,1 22,4 21,5 16 8 28 15 WSW 1010,3 61 1 0,0
14.08.2018 12:00:00 20,5 13,5 21,1 24,9 22,2 21,5 15 8 31 17 WSW 1010,1 49 6 0,0
14.08.2018 11:00:00 21,4 13,2 25,0 24,6 21,9 21,5 17 9 32 18 WSW 1009,9 33 10 0,0
14.08.2018 10:00:00 19,6 13,7 20,9 22,7 21,8 21,5 15 8 28 15 WSW 1009,9 30 20 0,0
14.08.2018 09:00:00 19,3 13,9 22,0 20,7 21,8 21,5 13 7 24 13 WSW 1009,6 19 42 0,0
14.08.2018 08:00:00 17,7 13,7 18,2 18,7 22,0 21,5 11 6 18 10 WSW 1009,3 22 37 0,0
14.08.2018 07:00:00 16,1 13,5 14,9 18,2 22,2 21,5 7 4 14 8 SW 1008,9 22 8 0,0
14.08.2018 06:00:00 16,5 13,6 16,2 18,2 22,4 21,5 6 3 17 9 SW 1008,7 25 0 0,0
14.08.2018 05:00:00 15,9 13,5 14,7 17,8 22,8 21,5 7 4 12 6 SSW 1008,3 19 0 0,0
14.08.2018 04:00:00 16,2 13,6 13,9 18,3 23,1 21,6 6 3 14 8 SW 1008,2 21 0 0,0
14.08.2018 03:00:00 16,6 13,5 15,0 18,9 23,4 21,6 8 5 20 11 SW 1008,2 33 0 0,0
14.08.2018 02:00:00 17,1 13,6 15,5 19,5 23,7 21,6 9 5 16 9 SW 1007,9 62 0 0,0
14.08.2018 01:00:00 18,4 14,0 16,6 20,3 24,0 21,6 8 5 17 9 SW 1007,8 70 0 0,0
14.08.2018 00:00:00 19,4 13,8 17,6 21,1 24,2 21,6 8 5 15 8 SW 1007,2 70 0 0,0
13.08.2018 23:00:00 19,7 14,0 18,4 21,9 24,5 21,6 6 4 12 6 S 1006,8 70 0 0,0
13.08.2018 22:00:00 21,6 13,9 20,8 22,5 24,7 21,6 8 4 22 12 SW 1006,7 70 0 0,0
13.08.2018 21:00:00 21,9 13,9 20,1 23,8 24,9 21,6 6 4 18 10 SW 1006,4 70 2 0,0
13.08.2018 20:00:00 22,8 14,4 22,2 25,1 25,0 21,7 9 5 16 9 S 1005,9 38 0 0,0
13.08.2018 19:00:00 23,4 15,5 23,3 27,1 25,0 21,7 10 6 25 14 SSE 1006,1 70 50 0,0
13.08.2018 18:00:00 23,0 15,6 25,3 26,4 25,1 21,7 8 4 15 8 SE 1006,7 66 17 0,0
13.08.2018 17:00:00 21,4 15,9 21,9 25,5 25,3 21,7 5 3 8 4 SSE 1007,4 70 0 0,1
13.08.2018 16:00:00 21,3 15,3 19,9 26,9 25,2 21,7 6 3 30 16 SW 1007,7 22 0 0,3
13.08.2018 15:00:00 25,2 10,5 26,3 31,2 24,9 21,7 17 9 36 20 WSW 1007,6 70 0 0,0
13.08.2018 14:00:00 27,1 8,7 29,3 33,8 24,2 21,7 22 12 44 24 WSW 1007,1 29 8 0,0
13.08.2018 13:00:00 29,4 6,1 32,5 35,6 23,4 21,7 13 7 26 14 SSW 1006,6 63 28 0,0
13.08.2018 12:00:00 29,4 5,5 33,8 34,6 22,6 21,7 8 4 23 12 S 1007,0 70 53 0,0
13.08.2018 11:00:00 28,4 4,8 32,6 31,1 22,0 21,8 10 6 19 10 SSW 1007,3 70 56 0,0
13.08.2018 10:00:00 25,9 5,2 28,6 26,0 21,6 21,8 3 2 8 5 SSW 1007,6 70 43 0,0
13.08.2018 09:00:00 21,3 7,7 22,8 21,9 21,6 21,8 2 1 5 3 WSW 1008,0 70 60 0,0
13.08.2018 08:00:00 15,1 6,1 16,6 16,7 21,9 21,8 0 0 4 2 N 1008,4 70 59 0,0
13.08.2018 07:00:00 9,1 5,9 8,9 14,8 22,4 21,8 2 1 3 2 S 1008,6 60 20 0,0
13.08.2018 06:00:00 7,8 5,5 6,5 14,9 22,8 21,8 2 1 4 2 WSW 1009,0 60 0 0,0
13.08.2018 05:00:00 8,9 5,7 7,4 15,6 23,3 21,8 2 1 4 2 WSW 1009,1 65 0 0,0
13.08.2018 04:00:00 9,7 5,9 7,9 16,5 23,8 21,8 2 1 7 4 SSE 1009,7 70 0 0,0
13.08.2018 03:00:00 11,2 5,9 9,2 17,6 24,3 21,8 1 1 4 2 SSW 1010,3 70 0 0,0
13.08.2018 02:00:00 12,4 6,9 11,6 18,7 24,7 21,8 0 0 3 2 N 1010,8 70 0 0,0
13.08.2018 01:00:00 12,5 7,4 11,0 19,4 25,2 21,9 0 0 3 2 N 1011,3 70 0 0,0
13.08.2018 00:00:00 14,0 7,8 12,8 20,6 25,7 21,9 2 1 3 2 S 1011,5 70 0 0,0
12.08.2018 23:00:00 15,4 8,1 14,6 21,9 26,2 21,9 0 0 3 2 N 1011,7 70 0 0,0
12.08.2018 22:00:00 16,9 7,7 15,5 23,4 26,6 21,9 0 0 3 2 N 1012,1 70 0 0,0
12.08.2018 21:00:00 19,9 8,4 17,0 26,0 26,8 22,0 0 0 3 2 N 1012,1 70 0 0,0
12.08.2018 20:00:00 25,5 2,0 23,0 29,2 26,9 22,0 2 1 10 6 N 1012,2 70 19 0,0
12.08.2018 19:00:00 26,6 1,9 26,8 32,1 26,8 22,0 4 2 18 10 WNW 1012,7 70 58 0,0
12.08.2018 18:00:00 26,8 1,2 28,8 34,3 26,4 22,0 9 5 23 12 W 1013,3 55 60 0,0
12.08.2018 17:00:00 27,0 -0,4 31,1 36,2 25,9 22,1 10 5 23 12 W 1013,9 26 60 0,0
12.08.2018 16:00:00 26,6 2,8 31,2 37,5 25,1 22,1 8 4 28 15 WSW 1014,7 41 60 0,0
12.08.2018 15:00:00 25,8 2,1 30,3 38,1 24,2 22,1 16 9 42 23 WSW 1015,5 26 60 0,0
12.08.2018 14:00:00 25,7 4,2 31,4 37,1 23,3 22,2 14 8 29 16 WSW 1016,3 22 60 0,0
12.08.2018 13:00:00 24,4 5,2 28,9 35,5 22,3 22,2 10 6 30 16 S 1017,1 30 60 0,0
12.08.2018 12:00:00 23,1 4,9 30,2 33,0 21,4 22,2 16 9 26 14 WSW 1017,8 33 60 0,0
12.08.2018 11:00:00 21,8 5,0 27,9 29,2 20,8 22,2 12 7 25 14 WSW 1018,3 44 60 0,0
12.08.2018 10:00:00 20,1 6,7 24,0 24,5 20,4 22,2 8 4 16 8 SW 1018,8 60 60 0,0
12.08.2018 09:00:00 17,1 7,5 19,7 19,9 20,4 22,3 6 4 12 6 SSW 1019,1 70 60 0,0
12.08.2018 08:00:00 13,4 7,7 15,0 14,9 20,6 22,3 0 0 3 2 N 1019,4 61 60 0,0
12.08.2018 07:00:00 8,6 7,3 6,9 13,2 21,0 22,3 0 0 7 4 N 1020,0 34 11 0,0
12.08.2018 06:00:00 8,0 6,9 6,0 13,4 21,4 22,3 4 2 6 3 SSW 1020,3 43 0 0,0
12.08.2018 05:00:00 8,2 7,2 6,3 13,8 21,8 22,3 2 1 5 3 SW 1020,4 45 0 0,0
12.08.2018 04:00:00 8,0 6,9 6,4 13,9 22,2 22,3 2 1 5 3 SW 1020,7 53 0 0,0
12.08.2018 03:00:00 7,8 6,7 6,1 14,4 22,7 22,4 5 3 6 3 SSW 1020,9 54 0 0,0
12.08.2018 02:00:00 8,3 6,5 6,3 15,0 23,2 22,4 3 1 5 3 SW 1021,2 60 0 0,0
12.08.2018 01:00:00 8,7 6,6 6,7 15,9 23,7 22,4 4 2 6 3 SSW 1021,5 70 0 0,0
12.08.2018 00:00:00 10,3 7,3 8,0 17,0 24,2 22,4 4 2 5 3 S 1021,7 70 0 0,0
11.08.2018 23:00:00 12,4 8,3 9,5 18,4 24,6 22,4 4 2 7 4 SSW 1021,6 70 0 0,0
11.08.2018 22:00:00 14,8 8,6 12,0 20,2 25,0 22,5 4 2 15 8 WSW 1021,4 70 0 0,0
11.08.2018 21:00:00 17,8 8,3 16,6 22,3 25,3 22,5 10 5 26 14 NW 1021,0 70 0 0,0
11.08.2018 20:00:00 18,5 7,3 17,8 24,0 25,4 22,5 16 9 35 19 WNW 1020,7 70 11 0,0
11.08.2018 19:00:00 18,7 8,0 19,2 25,8 25,5 22,5 18 10 35 19 WNW 1020,8 70 3 0,0
11.08.2018 18:00:00 20,6 6,3 22,1 27,7 25,4 22,6 23 12 40 22 W 1020,2 40 11 0,0
11.08.2018 17:00:00 21,0 6,2 23,4 29,4 25,2 22,6 20 11 48 26 W 1019,8 41 10 0,0
11.08.2018 16:00:00 22,9 5,5 26,9 30,7 24,8 22,6 22 12 42 23 WSW 1019,6 30 43 0,0
11.08.2018 15:00:00 20,5 6,0 23,4 30,1 24,3 22,6 21 12 43 23 W 1020,1 53 22 0,0
11.08.2018 14:00:00 21,2 5,2 26,2 30,2 23,8 22,6 27 14 46 25 W 1020,0 30 33 0,0
11.08.2018 13:00:00 21,0 5,7 26,0 29,5 23,3 22,6 23 12 40 22 W 1019,9 30 34 0,0
11.08.2018 12:00:00 20,3 7,8 25,9 29,2 22,8 22,7 23 12 38 21 WSW 1020,2 32 48 0,0
11.08.2018 11:00:00 18,0 9,7 23,7 25,5 22,6 22,7 22 12 39 21 WSW 1020,1 30 47 0,0
11.08.2018 10:00:00 15,7 9,4 16,9 20,2 22,6 22,7 18 10 31 17 WSW 1020,2 70 0 0,0
11.08.2018 09:00:00 16,9 8,0 17,9 20,2 22,7 22,7 16 9 34 19 W 1020,2 70 3 0,0
11.08.2018 08:00:00 17,0 6,9 16,9 18,0 22,9 22,7 10 6 18 10 SW 1019,1 70 0 0,0
11.08.2018 07:00:00 13,5 6,4 11,0 16,3 23,3 22,7 6 3 11 6 SSW 1018,9 70 0 0,0
11.08.2018 06:00:00 12,5 6,6 10,3 16,7 23,6 22,7 4 2 10 5 SSW 1018,9 70 0 0,0
11.08.2018 05:00:00 12,3 6,3 10,8 16,8 24,0 22,7 6 4 9 5 SSW 1019,0 70 0 0,0
11.08.2018 04:00:00 10,5 6,4 10,0 16,8 24,5 22,7 4 2 6 3 SSW 1019,6 70 0 0,0
11.08.2018 03:00:00 9,7 5,8 8,9 16,9 25,0 22,7 3 1 3 2 S 1020,0 70 0 0,0
11.08.2018 02:00:00 9,8 6,0 8,8 17,5 25,5 22,7 2 1 4 2 SSE 1020,6 70 0 0,0
11.08.2018 01:00:00 9,9 6,1 8,2 17,9 26,1 22,7 3 2 4 2 S 1021,2 70 0 0,0
11.08.2018 00:00:00 10,6 6,2 9,0 19,1 26,7 22,8 3 2 6 3 W 1021,2 70 0 0,0
10.08.2018 23:00:00 12,7 6,5 10,4 20,5 27,3 22,8 1 1 8 4 SW 1021,2 70 0 0,0
10.08.2018 22:00:00 15,0 6,8 12,2 22,3 27,8 22,8 5 3 8 4 SE 1021,3 70 0 0,0
10.08.2018 21:00:00 19,4 7,1 15,2 25,0 28,1 22,8 3 2 7 4 S 1021,1 70 15 0,0
10.08.2018 20:00:00 22,8 4,9 21,6 27,9 28,3 22,8 4 2 22 12 WSW 1020,8 70 45 0,0
10.08.2018 19:00:00 24,0 3,7 24,7 31,1 28,2 22,8 15 8 23 12 W 1020,8 37 55 0,0
10.08.2018 18:00:00 24,2 4,1 26,5 33,7 27,9 22,8 13 7 26 14 WSW 1021,3 40 60 0,0
10.08.2018 17:00:00 24,3 4,6 28,8 34,5 27,6 22,8 12 7 28 15 WSW 1021,7 28 48 0,0
10.08.2018 16:00:00 23,2 5,9 27,3 34,8 27,1 22,8 17 9 27 15 W 1022,1 48 39 0,0
10.08.2018 15:00:00 23,0 7,2 28,8 34,4 26,5 22,8 16 9 30 16 W 1022,0 47 37 0,0
10.08.2018 14:00:00 21,9 6,8 26,0 35,3 25,9 22,8 16 9 37 20 SW 1021,7 28 55 0,0
10.08.2018 13:00:00 21,7 7,9 27,4 32,8 25,4 22,8 17 9 37 20 WSW 1021,4 32 52 0,0

tt = temperature
td = dewpoint
tt 5cm = temperature 5cm
tt -5cm = temperature -5cm
tt -20cm = temperature -20cm
tt -100cm = temperature -100cm
ff = wind speed
fx = gusts
dd = wind direction
ppp = reduced air pressure
vv = visibility
sd = sunshine duration
rr = precipitation

Next stations